Weather History for Stevensville, MD

Change the Weather History Date:

Monday, February 3, 2014

  Actual Average (KESN) Record (KESN)
Temperature  
Mean Temperature 36 °F -  
Max Temperature 41 °F 46 °F 63 °F (1967)
Min Temperature 32 °F 25 °F 2 °F (1961)
Degree Days  
Heating Degree Days 28    
Moisture  
Dew Point 34 °F    
Average Humidity 97    
Maximum Humidity 100    
Minimum Humidity 81    
Precipitation  
Precipitation 0.00 in - - ()
Sea Level Pressure  
Sea Level Pressure 30.13 in    
Wind  
Wind Speed 8 mph (North)    
Max Wind Speed 16 mph    
Max Gust Speed 22 mph    
Visibility 6 miles    
Events Rain , Snow    
Averages and records for this station are not official NWS values.
T = Trace of Precipitation, MM = Missing Value Source: NWS Daily Summary

Daily Weather History Graph

Daily Weather History Graph

Search for Another Location

Airport:

Trip Planner

Search our weather history database for the weather conditions in past years. The results will help you decide how hot, cold, wet, or windy it might be!

Date:

Astronomy

Feb. 03, 2014 Rise Set
Actual Time 7:09 AM EST 5:28 PM EST
Civil Twilight 6:41 AM EST 5:56 PM EST
Nautical Twilight 6:10 AM EST 6:28 PM EST
Astronomical Twilight 5:38 AM EST 7:00 PM EST
Moon 9:13 AM EST (2/3) 10:13 PM EST (2/3)
Length of Visible Light 11h 15m
Length of Day
10h 19m
Waxing Crescent, 19% of the Moon is Illuminated
Feb 3
Waxing Crescent
Feb 6
First Quarter
Feb 14
Full
Feb 22
Last Quarter
Mar 1
New

Hourly Weather History & Observations

Time (EST) Temp. Windchill Dew Point Humidity Pressure Visibility Wind Dir Wind Speed Gust Speed Precip Events Conditions
12:12 AM 37.4 °F 32.8 °F 33.8 °F 87% 30.07 in 7.0 mi North 5.8 mph - N/A   Scattered Clouds
12:32 AM 37.4 °F 32.1 °F 35.6 °F 93% 30.07 in 7.0 mi North 6.9 mph - N/A   Mostly Cloudy
12:52 AM 37.4 °F 32.8 °F 35.6 °F 93% 30.07 in 7.0 mi North 5.8 mph - N/A   Mostly Cloudy
1:12 AM 39.2 °F 35.9 °F 35.6 °F 87% 30.06 in 7.0 mi North 4.6 mph - N/A   Scattered Clouds
1:32 AM 41.0 °F 39.0 °F 35.6 °F 81% 30.08 in 7.0 mi NNW 3.5 mph - N/A   Mostly Cloudy
1:52 AM 39.2 °F 35.0 °F 35.6 °F 87% 30.06 in 7.0 mi North 5.8 mph - N/A   Scattered Clouds
2:12 AM 37.4 °F 32.1 °F 35.6 °F 93% 30.07 in 5.0 mi North 6.9 mph - N/A Rain Light Rain
2:32 AM 37.4 °F 30.8 °F 35.6 °F 93% 30.08 in 5.0 mi North 9.2 mph - N/A Rain Light Rain
2:52 AM 37.4 °F 29.8 °F 35.6 °F 93% 30.08 in 3.0 mi North 11.5 mph - N/A Rain Rain
3:12 AM 37.4 °F 31.4 °F 35.6 °F 93% 30.10 in 2.5 mi North 8.1 mph - N/A Rain Rain
3:32 AM 37.4 °F 30.8 °F 37.4 °F 100% 30.07 in 1.5 mi North 9.2 mph - N/A Rain Light Rain
3:52 AM 39.2 °F 33.0 °F 39.2 °F 100% 30.05 in 2.0 mi NNE 9.2 mph - N/A   Drizzle
4:12 AM 39.2 °F 34.2 °F 39.2 °F 100% 30.04 in 2.5 mi NE 6.9 mph - N/A Rain Light Rain
4:32 AM 39.2 °F 35.0 °F 39.2 °F 100% 30.05 in 2.5 mi NE 5.8 mph - N/A   Drizzle
4:52 AM 39.2 °F 34.2 °F 39.2 °F 100% 30.07 in 2.0 mi NNE 6.9 mph - N/A Rain Rain
5:12 AM 37.4 °F 32.1 °F 37.4 °F 100% 30.07 in 2.0 mi NNE 6.9 mph - N/A Rain Rain
5:32 AM 37.4 °F 31.4 °F 37.4 °F 100% 30.08 in 3.0 mi NE 8.1 mph - N/A Rain Light Rain
5:52 AM 37.4 °F 31.4 °F 37.4 °F 100% 30.07 in 5.0 mi NE 8.1 mph 16.1 mph N/A Rain Rain
6:13 AM 37.4 °F 30.8 °F 37.4 °F 100% 30.06 in 4.0 mi NNE 9.2 mph - N/A Rain Rain
6:33 AM 37.4 °F 32.1 °F 37.4 °F 100% 30.08 in 3.0 mi NE 6.9 mph - N/A Rain Rain
6:53 AM 37.4 °F 32.1 °F 37.4 °F 100% 30.07 in 4.0 mi NE 6.9 mph - N/A Rain Rain
7:13 AM 35.6 °F 28.6 °F 35.6 °F 100% 30.05 in 4.0 mi NE 9.2 mph - N/A Rain Rain
7:33 AM 35.6 °F 29.9 °F 35.6 °F 100% 30.05 in 3.0 mi ENE 6.9 mph - N/A Rain Rain
7:53 AM 35.6 °F 31.7 °F 35.6 °F 100% 30.05 in 2.5 mi East 4.6 mph - N/A Rain Rain
8:13 AM 35.6 °F 29.2 °F 35.6 °F 100% 30.02 in 2.0 mi ENE 8.1 mph - N/A Rain Rain
8:33 AM 35.6 °F 31.7 °F 35.6 °F 100% 30.04 in 1.8 mi NE 4.6 mph - N/A Rain Heavy Rain
8:53 AM 35.6 °F 28.0 °F 35.6 °F 100% 30.02 in 2.0 mi NE 10.4 mph - N/A Rain Rain
9:13 AM 35.6 °F 27.5 °F 35.6 °F 100% 30.00 in 1.2 mi NNE 11.5 mph 16.1 mph N/A Rain Rain
9:33 AM 35.6 °F 28.0 °F 35.6 °F 100% 30.04 in 1.5 mi North 10.4 mph - N/A Rain Rain
9:53 AM 33.8 °F 24.3 °F 33.8 °F 100% 30.07 in 1.2 mi North 13.8 mph 19.6 mph N/A Rain Rain
10:13 AM 33.8 °F 25.8 °F 33.8 °F 100% 30.06 in 1.8 mi North 10.4 mph 18.4 mph N/A Rain Light Rain
10:33 AM 33.8 °F 25.8 °F 33.8 °F 100% 30.05 in 3.0 mi North 10.4 mph - N/A Rain Light Rain
10:53 AM 33.8 °F 27.7 °F 33.8 °F 100% 30.03 in 5.0 mi NNE 6.9 mph - N/A Rain Light Rain
11:13 AM 35.6 °F 30.7 °F 35.6 °F 100% 30.05 in 7.0 mi NNE 5.8 mph - N/A   Drizzle
11:33 AM 35.6 °F 29.9 °F 35.6 °F 100% 30.02 in 7.0 mi NNE 6.9 mph - N/A Rain Rain
11:53 AM 33.8 °F 28.6 °F 33.8 °F 100% 30.01 in 7.0 mi NNE 5.8 mph - N/A Rain Light Rain
12:13 PM 33.8 °F 24.3 °F 33.8 °F 100% 30.06 in 10.0 mi North 13.8 mph 19.6 mph N/A Rain Light Rain
12:33 PM 33.8 °F 25.3 °F 33.8 °F 100% 30.05 in 7.0 mi North 11.5 mph 19.6 mph N/A   Drizzle
12:53 PM 33.8 °F 24.8 °F 33.8 °F 100% 30.05 in 7.0 mi North 12.7 mph 20.7 mph N/A   Drizzle
1:13 PM 33.8 °F 23.5 °F 33.8 °F 100% 30.06 in 4.0 mi North 16.1 mph 21.9 mph N/A   Drizzle
1:33 PM 33.8 °F 24.8 °F 33.8 °F 100% 30.06 in 1.2 mi North 12.7 mph 20.7 mph N/A Rain Light Rain
1:53 PM 32.0 °F 22.5 °F 32.0 °F 100% 30.07 in 2.0 mi North 12.7 mph 19.6 mph N/A Snow Light Snow
2:13 PM 32.0 °F 23.6 °F 32.0 °F 100% 30.08 in 2.5 mi North 10.4 mph 16.1 mph N/A Snow Light Snow
2:33 PM 32.0 °F 22.5 °F 32.0 °F 100% 30.09 in 5.0 mi North 12.7 mph 16.1 mph N/A Rain Light Rain
2:54 PM 33.8 °F 25.8 °F 33.8 °F 100% 30.10 in 4.0 mi North 10.4 mph 16.1 mph N/A Rain Light Rain
3:14 PM 33.8 °F 27.0 °F 33.8 °F 100% 30.10 in 5.0 mi North 8.1 mph - N/A Rain Light Rain
3:34 PM 33.8 °F 26.4 °F 33.8 °F 100% 30.11 in 5.0 mi North 9.2 mph - N/A   Overcast
3:54 PM 33.8 °F 26.4 °F 33.8 °F 100% 30.13 in 7.0 mi North 9.2 mph - N/A   Overcast
4:14 PM 33.8 °F 26.4 °F 33.8 °F 100% 30.14 in 10.0 mi North 9.2 mph - N/A   Overcast
4:34 PM 33.8 °F 25.3 °F 33.8 °F 100% 30.15 in 10.0 mi North 11.5 mph 17.3 mph N/A   Overcast
4:52 PM 33.8 °F 25.8 °F 33.8 °F 100% 30.17 in 10.0 mi North 10.4 mph 17.3 mph N/A   Overcast
5:14 PM 33.8 °F 25.8 °F 32.0 °F 93% 30.19 in 10.0 mi NNW 10.4 mph - N/A   Overcast
5:34 PM 33.8 °F 25.3 °F 32.0 °F 93% 30.20 in 10.0 mi NNW 11.5 mph 16.1 mph N/A   Overcast
5:54 PM 33.8 °F 25.3 °F 32.0 °F 93% 30.21 in 10.0 mi North 11.5 mph 16.1 mph N/A   Overcast
6:14 PM 33.8 °F 25.3 °F 32.0 °F 93% 30.22 in 10.0 mi North 11.5 mph - N/A   Overcast
6:34 PM 33.8 °F 27.0 °F 32.0 °F 93% 30.23 in 10.0 mi North 8.1 mph - N/A   Overcast
6:54 PM 33.8 °F 28.6 °F 32.0 °F 93% 30.24 in 10.0 mi North 5.8 mph - N/A   Overcast
7:14 PM 33.8 °F 28.6 °F 32.0 °F 93% 30.24 in 10.0 mi North 5.8 mph - N/A   Overcast
7:34 PM 33.8 °F 27.0 °F 32.0 °F 93% 30.25 in 10.0 mi North 8.1 mph - N/A   Overcast
7:54 PM 33.8 °F 27.7 °F 32.0 °F 93% 30.26 in 10.0 mi North 6.9 mph - N/A   Overcast
8:14 PM 33.8 °F 30.8 °F 32.0 °F 93% 30.28 in 10.0 mi NNW 3.5 mph - N/A   Overcast
8:34 PM 33.8 °F 28.6 °F 32.0 °F 93% 30.30 in 10.0 mi NNW 5.8 mph - N/A   Overcast
8:54 PM 33.8 °F 28.6 °F 32.0 °F 93% 30.30 in 10.0 mi NNW 5.8 mph - N/A   Overcast
9:14 PM 33.8 °F 29.6 °F 32.0 °F 93% 30.31 in 10.0 mi NNW 4.6 mph - N/A   Overcast
9:34 PM 33.8 °F 27.0 °F 32.0 °F 93% 30.31 in 10.0 mi North 8.1 mph - N/A   Overcast
9:54 PM 33.8 °F 27.7 °F 32.0 °F 93% 30.31 in 10.0 mi North 6.9 mph - N/A   Overcast
10:14 PM 33.8 °F 28.6 °F 32.0 °F 93% 30.32 in 10.0 mi NNW 5.8 mph - N/A   Overcast
10:34 PM 33.8 °F 27.7 °F 32.0 °F 93% 30.32 in 10.0 mi NNW 6.9 mph - N/A   Overcast
10:54 PM 32.0 °F 26.4 °F 32.0 °F 100% 30.33 in 10.0 mi NNW 5.8 mph - N/A   Mostly Cloudy
11:14 PM 32.0 °F 23.6 °F 32.0 °F 100% 30.33 in 10.0 mi NNW 10.4 mph - N/A   Scattered Clouds
11:34 PM 32.0 °F 23.0 °F 30.2 °F 93% 30.33 in 10.0 mi NNW 11.5 mph 16.1 mph N/A   Clear
11:54 PM 32.0 °F 24.2 °F 28.4 °F 87% 30.34 in 10.0 mi North 9.2 mph - N/A   Clear